Location: Grossmotten
(48.5500°N, 15.3833°E)
Time: 13:50:12
(UTC+00:00)

MSX - Pass Details

Date: 15 November 2019
Orbit: 895 x 906 km, 98.8° (Epoch: 13 December)

Event Time Altitude Azimuth Distance (km) Brightness Sun altitude
Rises 02:49:55 0° 17° (NNE) 3,527 7.2 -32.3°
Reaches altitude 10° 02:52:21 10° 20° (NNE) 2,584 6.5 -31.9°
Maximum altitude 02:58:04 64° 102° (ESE) 998 4.1 -30.9°
Enters shadow 02:59:21 50° 154° (SSE) 1,132 4.3 -30.7°
